Lewis Run, PA

5:14 PM EST on December 07, 2016 (GMT -0500)
Bradford Regional

Weather History for KBFD - February, 2013

Change the Weather History Date:

Tuesday, February 19, 2013

  Actual Average Record
Temperature  
Mean Temperature 28 °F 24 °F  
Max Temperature 37 °F 33 °F 62 °F (1994)
Min Temperature 18 °F 15 °F -14 °F (1993)
Degree Days  
Heating Degree Days 37 35  
Month to date heating degree days 695  
Since 1 July heating degree days 5106  
Cooling Degree Days 0 0  
Month to date cooling degree days 0  
Year to date cooling degree days 0  
Moisture  
Dew Point 22 °F    
Average Humidity 75    
Maximum Humidity 89    
Minimum Humidity 48    
Precipitation  
Precipitation 0.21 in 0.08 in 1.04 in (1964)
Month to date precipitation 1.58  
Year to date precipitation 4.87  
Sea Level Pressure  
Sea Level Pressure 29.69 in    
Wind  
Wind Speed 10 mph (SW)    
Max Wind Speed 17 mph    
Max Gust Speed 29 mph    
Visibility 4 miles    
Events Fog , Rain , Snow    
T = Trace of Precipitation, MM = Missing Value Source: NWS Daily Summary

Daily Weather History Graph

Daily Weather History Graph

Search for Another Location

Airport or City:

Trip Planner

Search our weather history database for the weather conditions in past years. The results will help you decide how hot, cold, wet, or windy it might be!

Date:

Astronomy

Feb. 19, 2013 Rise Set
Actual Time 7:04 AM EST 5:53 PM EST
Civil Twilight 6:35 AM EST 6:21 PM EST
Nautical Twilight 6:03 AM EST 6:53 PM EST
Astronomical Twilight 5:31 AM EST 7:26 PM EST
Moon 12:20 PM EST (2/19) 2:37 AM EST (2/19)
Length of Visible Light 11h 45m
Length of Day
10h 48m
Waxing Gibbous, 67% of the Moon is Illuminated
Feb 19
Waxing Gibbous
Feb 25
Full
Mar 4
Last Quarter
Mar 11
New
Mar 19
First Quarter

Hourly Weather History & Observations

Time (EST) Temp. Windchill Dew Point Humidity Pressure Visibility Wind Dir Wind Speed Gust Speed Precip Events Conditions
12:53 AM 33.1 °F 26.1 °F 17.1 °F 52% 29.92 in 10.0 mi SE 8.1 mph - N/A   Clear
1:53 AM 33.1 °F 26.1 °F 16.0 °F 50% 29.91 in 10.0 mi SSE 8.1 mph - N/A   Clear
2:53 AM 32.0 °F 23.6 °F 16.0 °F 52% 29.86 in 10.0 mi SE 10.4 mph - N/A   Clear
3:53 AM 33.1 °F 24.9 °F 17.1 °F 52% 29.81 in 10.0 mi SE 10.4 mph - N/A   Clear
4:53 AM 35.1 °F 27.9 °F 17.1 °F 48% 29.79 in 10.0 mi SSE 9.2 mph - N/A   Overcast
5:53 AM 36.0 °F 28.5 °F 19.0 °F 50% 29.77 in 6.0 mi South 10.4 mph - 0.00 in Snow Light Snow
6:01 AM 35.1 °F 26.9 °F 24.1 °F 64% 29.73 in 1.8 mi South 11.5 mph - 0.01 in Snow Light Snow
6:05 AM 33.1 °F 24.4 °F 26.1 °F 75% 29.73 in 0.8 mi South 11.5 mph - 0.01 in Snow Light Snow
6:17 AM 32.0 °F 24.8 °F 28.9 °F 88% 29.71 in 0.5 mi SSE 8.1 mph - 0.04 in Fog , Snow Snow
6:27 AM 32.0 °F 24.2 °F 28.9 °F 88% 29.71 in 0.5 mi SSE 9.2 mph - 0.06 in Fog , Snow Snow
6:53 AM 33.1 °F 24.9 °F 30.0 °F 89% 29.74 in 0.8 mi SSE 10.4 mph 17.3 mph 0.09 in Snow Light Snow
7:35 AM 33.1 °F 24.9 °F 30.0 °F 89% 29.68 in 0.5 mi SSE 10.4 mph 20.7 mph 0.03 in Fog , Snow Snow
7:53 AM 34.0 °F 25.5 °F 30.0 °F 85% 29.72 in 0.5 mi SSE 11.5 mph 19.6 mph 0.04 in Fog , Snow Snow
8:36 AM 34.0 °F 26.0 °F 30.9 °F 89% 29.66 in 1.5 mi South 10.4 mph 19.6 mph 0.01 in Snow Light Snow
8:53 AM 35.1 °F 27.4 °F 30.9 °F 85% 29.70 in 2.0 mi SSE 10.4 mph - 0.01 in Snow Light Snow
9:04 AM 35.1 °F 27.9 °F 30.9 °F 85% 29.64 in 4.0 mi South 9.2 mph - 0.00 in Snow Light Snow
9:37 AM 35.1 °F 27.4 °F 30.9 °F 85% 29.62 in 1.8 mi SSE 10.4 mph 19.6 mph 0.01 in Snow Light Snow
9:53 AM 35.1 °F 28.6 °F 30.9 °F 85% 29.67 in 1.2 mi South 8.1 mph 19.6 mph 0.01 in Snow Light Snow
10:05 AM 35.1 °F 28.6 °F 32.0 °F 89% 29.62 in 3.0 mi South 8.1 mph - 0.01 in Snow Light Snow
10:53 AM 36.0 °F 28.0 °F 32.0 °F 86% 29.65 in 4.0 mi South 11.5 mph 20.7 mph 0.01 in Snow Light Snow
11:53 AM 37.0 °F 29.8 °F 33.1 °F 86% 29.62 in 7.0 mi South 10.4 mph 19.6 mph 0.00 in Rain Light Rain
1:24 PM 36.0 °F 29.6 °F 33.1 °F 89% 29.54 in 2.5 mi SW 8.1 mph - 0.04 in Rain Rain
1:34 PM 36.0 °F 30.3 °F 33.1 °F 89% 29.54 in 4.0 mi SW 6.9 mph - 0.04 in Snow Light Snow
1:53 PM 37.0 °F 30.4 °F 33.1 °F 86% 29.58 in 4.0 mi WSW 9.2 mph - 0.05 in Rain Light Rain
2:06 PM 37.9 °F 30.0 °F 32.0 °F 79% 29.54 in 10.0 mi WSW 12.7 mph 26.5 mph 0.00 in   Overcast
2:14 PM 37.0 °F 28.9 °F 32.0 °F 82% 29.55 in 8.0 mi West 12.7 mph 24.2 mph 0.00 in Rain Light Rain
2:24 PM 36.0 °F 28.5 °F 30.9 °F 82% 29.55 in 2.5 mi WSW 10.4 mph 25.3 mph 0.00 in Snow Light Snow
2:26 PM 36.0 °F 28.5 °F 30.9 °F 82% 29.55 in 3.0 mi West 10.4 mph 25.3 mph 0.00 in Snow Light Snow
2:39 PM 37.0 °F 29.8 °F 30.9 °F 79% 29.55 in 10.0 mi WSW 10.4 mph 19.6 mph 0.00 in   Mostly Cloudy
2:53 PM 35.1 °F 26.4 °F 28.0 °F 76% 29.60 in 10.0 mi West 12.7 mph 25.3 mph 0.00 in   Mostly Cloudy
3:53 PM 33.1 °F 22.2 °F 23.0 °F 66% 29.64 in 10.0 mi West 17.3 mph 27.6 mph N/A   Overcast
4:53 PM 30.0 °F 20.5 °F 21.9 °F 72% 29.68 in 2.0 mi West 11.5 mph 21.9 mph 0.00 in Snow Light Snow
5:01 PM 28.9 °F 19.8 °F 21.9 °F 75% 29.63 in 1.8 mi WSW 10.4 mph 19.6 mph 0.00 in Snow Light Snow
5:32 PM 28.0 °F 17.0 °F 19.9 °F 72% 29.65 in 3.0 mi West 13.8 mph 21.9 mph 0.00 in Snow Light Snow
5:42 PM 28.0 °F 17.0 °F 19.0 °F 69% 29.65 in 2.0 mi WSW 13.8 mph 28.8 mph 0.00 in Snow Light Snow
5:53 PM 27.0 °F 17.3 °F 19.9 °F 75% 29.71 in 1.2 mi WSW 10.4 mph 21.9 mph 0.00 in Snow Light Snow
6:03 PM 27.0 °F 19.5 °F 19.0 °F 72% 29.66 in 3.0 mi Variable 6.9 mph 21.9 mph 0.00 in Snow Light Snow
6:28 PM 27.0 °F 18.7 °F 19.0 °F 72% 29.67 in 2.5 mi WSW 8.1 mph 17.3 mph 0.00 in Snow Light Snow
7:53 PM 25.0 °F 15.5 °F 16.0 °F 69% 29.75 in 4.0 mi WSW 9.2 mph 19.6 mph 0.00 in Snow Light Snow
8:20 PM 24.1 °F 12.5 °F 16.0 °F 71% 29.69 in 5.0 mi WSW 12.7 mph 27.6 mph 0.00 in Snow Light Snow
8:50 PM 24.8 °F 12.9 °F 15.8 °F 69% 29.70 in 1.8 mi West 13.8 mph 20.7 mph 0.00 in Snow Light Snow
8:51 PM 24.1 °F 11.5 °F 16.0 °F 71% 29.75 in 1.8 mi West 15.0 mph 21.9 mph 0.00 in Snow Light Snow
8:56 PM 24.1 °F 13.7 °F 16.0 °F 71% 29.70 in 3.0 mi West 10.4 mph 21.9 mph 0.00 in Snow Light Snow
9:15 PM 23.0 °F 9.6 °F 16.0 °F 74% 29.70 in 1.8 mi West 16.1 mph 20.7 mph 0.00 in Snow Light Snow
9:23 PM 21.9 °F 9.2 °F 16.0 °F 78% 29.71 in 0.8 mi West 13.8 mph - 0.00 in Snow Light Snow
9:37 PM 21.9 °F 11.7 °F 17.1 °F 82% 29.71 in 0.8 mi WSW 9.2 mph 19.6 mph 0.00 in Snow Light Snow
9:40 PM 21.9 °F 9.8 °F 16.0 °F 78% 29.71 in 1.0 mi West 12.7 mph 20.7 mph 0.00 in Snow Light Snow
9:43 PM 21.9 °F 10.4 °F 15.1 °F 75% 29.72 in 2.0 mi West 11.5 mph 21.9 mph 0.00 in Snow Light Snow
9:47 PM 21.2 °F 9.5 °F 14.0 °F 74% 29.72 in 3.0 mi West 11.5 mph 21.9 mph 0.00 in Snow Light Snow
9:53 PM 21.0 °F 9.3 °F 12.9 °F 71% 29.78 in 6.0 mi West 11.5 mph 23.0 mph 0.00 in   Overcast
10:01 PM 21.0 °F 8.6 °F 12.9 °F 71% 29.71 in 6.0 mi West 12.7 mph 26.5 mph 0.00 in   Overcast
10:08 PM 21.0 °F 9.9 °F 12.9 °F 71% 29.71 in 5.0 mi West 10.4 mph - 0.00 in Snow Light Snow
10:27 PM 21.0 °F 10.6 °F 14.0 °F 74% 29.71 in 2.5 mi WSW 9.2 mph 17.3 mph 0.00 in Snow Light Snow
10:45 PM 21.0 °F 8.6 °F 15.1 °F 78% 29.71 in 1.5 mi West 12.7 mph 19.6 mph 0.00 in Snow Light Snow
10:49 PM 21.2 °F 8.9 °F 14.0 °F 74% 29.71 in 2.0 mi West 12.7 mph 21.9 mph 0.00 in Snow Light Snow
10:53 PM 21.0 °F 8.6 °F 14.0 °F 74% 29.77 in 4.0 mi West 12.7 mph 21.9 mph 0.00 in Snow Light Snow
11:07 PM 19.9 °F 7.3 °F 14.0 °F 78% 29.71 in 1.8 mi West 12.7 mph 20.7 mph 0.00 in Snow Light Snow
11:21 PM 19.9 °F 7.9 °F 12.9 °F 74% 29.72 in 3.0 mi WSW 11.5 mph 19.6 mph 0.00 in Snow Light Snow
11:32 PM 19.9 °F 6.7 °F 12.0 °F 71% 29.72 in 1.8 mi WSW 13.8 mph 20.7 mph 0.00 in Snow Light Snow
11:40 PM 19.0 °F 6.1 °F 12.9 °F 77% 29.73 in 0.8 mi West 12.7 mph 23.0 mph 0.00 in Snow Light Snow
11:53 PM 18.0 °F 4.8 °F 10.9 °F 74% 29.80 in 2.0 mi West 12.7 mph 21.9 mph 0.00 in Snow Light Snow